Parsons, KS

5:06 PM CST on December 05, 2019 (GMT -0600)
Tri-City

Weather History for KPPF - November, 2019

Change the Weather History Date:

Tuesday, November 19, 2019

  Actual Average Record
Temperature  
Mean Temperature 50 °F -  
Max Temperature 66 °F 57 °F 76 °F (1950)
Min Temperature 33 °F 37 °F 21 °F (1980)
Degree Days  
Heating Degree Days 16    
Moisture  
Dew Point 35 °F    
Average Humidity 60    
Maximum Humidity 96    
Minimum Humidity 28    
Precipitation  
Precipitation 0.00 in - - ()
Sea Level Pressure  
Sea Level Pressure 29.94 in    
Wind  
Wind Speed 3 mph ()    
Max Wind Speed 7 mph    
Max Gust Speed -    
Visibility 10.0 miles    
Events      
Averages and records for this station are not official NWS values.
T = Trace of Precipitation, MM = Missing Value Source: Averaged Metar Reports

Daily Weather History Graph

Daily Weather History Graph

Search for Another Location

Airport or City:

Astronomy

Nov. 19, 2019 Rise Set
Actual Time 7:05 AM CST 5:09 PM CST
Civil Twilight 6:37 AM CST 5:37 PM CST
Nautical Twilight 6:05 AM CST 6:08 PM CST
Astronomical Twilight 5:34 AM CST 6:39 PM CST
Moon No Moon Rise 1:17 PM CST (11/19)
Length of Visible Light 11h 00m
Length of Day
10h 03m
Waning Gibbous, 51% of the Moon is Illuminated
Nov 19
Waning Gibbous
Nov 19
Last Quarter
Nov 26
New
Dec 4
First Quarter
Dec 11
Full

Hourly Weather History & Observations

Time (CST) Temp. Windchill Dew Point Humidity Pressure Visibility Wind Dir Wind Speed Gust Speed Precip Events Conditions
12:52 AM 44.1 °F 42.5 °F 35.1 °F 71% 29.86 in 10.0 mi NW 3.5 mph - N/A   Clear
1:52 AM 42.1 °F 37.7 °F 34.0 °F 73% 29.88 in 10.0 mi NNW 6.9 mph - N/A   Clear
2:52 AM 39.9 °F 35.8 °F 33.1 °F 77% 29.88 in 10.0 mi NW 5.8 mph - N/A   Clear
3:52 AM 35.1 °F 32.2 °F 32.0 °F 89% 29.88 in 10.0 mi NNE 3.5 mph - N/A   Clear
4:52 AM 34.0 °F - 32.0 °F 92% 29.91 in 10.0 mi Calm Calm - N/A   Clear
5:52 AM 34.0 °F 31.0 °F 32.0 °F 92% 29.93 in 9.0 mi NE 3.5 mph - N/A   Clear
7:52 AM 33.1 °F - 32.0 °F 96% 29.98 in 10.0 mi Calm Calm - N/A   Clear
8:52 AM 46.9 °F - 37.9 °F 71% 29.99 in 10.0 mi Calm Calm - N/A   Clear
9:52 AM 55.0 °F - 41.0 °F 59% 30.00 in 10.0 mi Calm Calm - N/A   Clear
10:52 AM 59.0 °F - 42.1 °F 53% 30.01 in 10.0 mi Variable 4.6 mph - N/A   Clear
11:52 AM 61.0 °F - 39.9 °F 46% 29.99 in 10.0 mi Calm Calm - N/A   Clear
12:52 PM 64.0 °F - 37.0 °F 37% 29.96 in 10.0 mi North - - N/A   Clear
2:52 PM 66.9 °F - 33.1 °F 28% 29.93 in 10.0 mi SSE 5.8 mph - N/A   Clear
3:52 PM 66.0 °F - 35.1 °F 32% 29.93 in 10.0 mi SSE 6.9 mph - N/A   Clear
4:52 PM 61.0 °F - 34.0 °F 36% 29.92 in 10.0 mi SE 3.5 mph - N/A   Clear
5:52 PM 57.0 °F - 36.0 °F 45% 29.93 in 10.0 mi SE 3.5 mph - N/A   Clear
6:52 PM 54.0 °F - 35.1 °F 49% 29.94 in 10.0 mi Calm Calm - N/A   Clear
8:52 PM 46.9 °F - 34.0 °F 61% 29.94 in 10.0 mi Calm Calm - N/A   Clear
9:52 PM 54.0 °F - 33.1 °F 45% 29.94 in 10.0 mi SE 4.6 mph - N/A   Clear
10:52 PM 53.1 °F - 34.0 °F 48% 29.93 in 10.0 mi Variable 3.5 mph - N/A   Clear
11:52 PM 51.1 °F - 34.0 °F 52% 29.92 in 10.0 mi SE 3.5 mph - N/A   Clear